Challenge des Corridas Hivernales

La Corrida D'Orsinfaing (5.00 km)

vendredi 08 novembre 2019

Le classement original se trouve sur : http://ultratiming.be/
CHALLENGE DES CORRIDAS HIVERNALES
LA CORRIDA D'ORSINFAING
DISTANCE : 5.38 km
vendredi 08 novembre 2019
 
Place dos NOM Catégorie Pl/cat temps temps/km Vitesse
1 478 COLLIN THOMAS SEH 1 00:17:39 03:17 18.30
2 202 COLLARD JULIEN SEH 2 00:18:41 03:28 17.29
3 306 STASSER THOMAS SEH 3 00:18:52 03:30 17.12
4 183 ANTOINE YANNICK V2H 1 00:19:23 03:36 16.66
5 2019 DEWEZ MAXIME SEH 4 00:19:32 03:38 16.54
6 41 LÉONARD CÉDRIC SEH 5 00:19:40 03:39 16.42
7 48 JOIRIS SULLIVAN V1H 1 00:19:41 03:39 16.41
8 39 RAMSPACHER JULUEN V1H 2 00:19:47 03:40 16.33
9 337 BALON ARNAUD SEH 6 00:19:52 03:41 16.26
10 443 STEFFEN JOHN SEH 7 00:19:57 03:42 16.19
11 552 MARICHAL FRANCOIS SEH 8 00:20:01 03:43 16.14
12 157 LEJEUNE DAMIEN SEH 9 00:20:22 03:47 15.86
13 65 DELAISSE ROMAIN SEH 10 00:20:30 03:48 15.76
14 490 PERRAD CHRISTOPHE SEH 11 00:20:30 03:48 15.76
15 588 THIRY LÉNAÏC SEH 12 00:20:44 03:51 15.58
16 190 BOZET ALEXANDRE SEH 13 00:20:53 03:53 15.47
17 76 LEGRAND JOACKIM SEH 14 00:20:57 03:54 15.42
18 566 CONNEROTTE SEH 15 00:21:07 03:55 15.30
19 179 DEPIENNE JULIEN SEH 16 00:21:07 03:55 15.30
20 54 COLLET AMAURY SEH 17 00:21:15 03:57 15.20
21 167 CHOUCARD MATHIEU SEH 18 00:21:17 03:57 15.18
22 2024 GILLET DAVID V2H 2 00:21:19 03:58 15.15
23 362 DREZEN MAXIME SEH 19 00:21:25 03:59 15.08
24 541 GOOSSE MICHAEL SEH 20 00:21:36 04:01 14.95
25 152 DETAILLE FRANCOIS SEH 21 00:21:39 04:01 14.92
26 504 CUVELIER FABIEN V1H 3 00:21:42 04:02 14.88
27 545 COLLARD CYPRIEN SEH 22 00:22:01 04:05 14.67
28 388 DEVILLE DORIAN SEH 23 00:22:07 04:07 14.60
29 2102 LAVAL SALINAS ESTEBAN JEUH 1 00:22:07 04:07 14.60
30 17 ARNOULD LORIS JEUH 2 00:22:08 04:07 14.59
31 5 KERGER SÉBASTIEN V1H 4 00:22:08 04:07 14.59
32 2017 DELAFONTAINE NOAH JEUH 3 00:22:09 04:07 14.58
33 554 GARCIA JONATHAN SEH 24 00:22:12 04:07 14.55
34 2027 GUEBELS COLIN SEH 25 00:22:13 04:08 14.54
35 137 JACQUES QUINDY SEH 26 00:22:18 04:09 14.48
36 311 LEMAIRE NANCY V1F 1 00:22:20 04:09 14.46
37 369 SOENEN JEAN-SEBASTIEN SEH 27 00:22:21 04:09 14.45
38 126 LOMMEL THOMAS SEH 28 00:22:27 04:10 14.39
39 373 MERGEAI THÉO JEUH 4 00:22:33 04:11 14.32
40 196 LEJEUNE JONATHAN SEH 29 00:22:37 04:12 14.28
41 328 ENGLEBERT THIERRY V1H 5 00:22:39 04:12 14.26
42 59 ADAM MARCO SEH 30 00:22:53 04:15 14.11
43 163 MARCHAL MATHIS SEH 31 00:22:54 04:15 14.10
44 201 VERGHOTE ANTOINE SEH 32 00:22:59 04:16 14.05
45 2038 LUFFIN DIDIER V2H 3 00:23:01 04:17 14.03
46 321 LOTHAIRE MAXENCE JEUH 5 00:23:14 04:19 13.90
47 120 THILTGEN JEAN-FRANÇOIS V1H 6 00:23:20 04:20 13.84
48 594 THIRY MATHYS JEUH 6 00:23:25 04:21 13.79
49 2008 2008 N.N. SEH 33 00:23:25 04:21 13.79
50 576 GANGLER JONATHAN SEH 34 00:23:25 04:21 13.79
51 142 VIEUXTEMPS MAXIME SEH 35 00:23:34 04:23 13.71
52 7 FENA AUGUSTIN SEH 36 00:23:39 04:24 13.66
53 2044 RICHARD TRISTAN SEH 37 00:23:40 04:24 13.65
54 56 DEVOLF THÉODORE JEUH 7 00:23:48 04:25 13.57
55 309 BASTIN PHILIPPE SEH 38 00:23:48 04:25 13.57
56 110 SPIES FLORENT SEH 39 00:23:48 04:25 13.57
57 159 LACOURT RÈGIS V3H 1 00:23:52 04:26 13.53
58 556 THIMOTHEE KEVIN SEH 40 00:23:53 04:26 13.52
59 348 DIEZ JEANLOUIS V2H 4 00:23:54 04:26 13.51
60 136 DARCIS RAPHAËL V1H 7 00:23:56 04:27 13.50
61 30 BRACONNIER ANTOINE SEH 41 00:23:58 04:27 13.48
62 474 SON KATHLEEN SEF 1 00:23:59 04:27 13.47
63 148 RACELLE VINCENT V1H 8 00:24:05 04:28 13.41
64 2003 ALLARD BASTIEN SEH 42 00:24:08 04:29 13.38
65 114 FENA ANTOINE SEH 43 00:24:08 04:29 13.38
66 2006 BEAUGEON LOIC SEH 44 00:24:13 04:30 13.34
67 323 BARTHAUX BENOIT V1H 9 00:24:13 04:30 13.34
68 592 FINET HUGO JEUH 8 00:24:36 04:34 13.13
69 579 PONCELET ANTHONY V2H 5 00:24:37 04:34 13.12
70 550 ADAM FLAVIO JEUH 9 00:24:39 04:35 13.10
71 150 ROISEUX RENÉ V2H 6 00:24:39 04:35 13.10
72 429 PLIER CHRISTOPHE V2H 7 00:24:40 04:35 13.09
73 88 LOBET DENIS SEH 45 00:24:42 04:35 13.08
74 66 WELVAERT JULES V3H 2 00:24:42 04:35 13.08
75 27 LIEGEOIS CLARA JEUF 1 00:24:44 04:36 13.06
76 2035 LESLIE FRANCOIS SEH 46 00:24:48 04:36 13.02
77 360 MANGEL ALEXANDRE V1H 10 00:24:48 04:36 13.02
78 104 DELAIT OLIVIER V2H 8 00:24:49 04:37 13.02
79 10 LECLER FLORENT V1H 11 00:24:51 04:37 13.00
80 393 RATY AMELIE SEF 2 00:24:53 04:37 12.98
81 4 TRINIANE NOE SEH 47 00:24:54 04:38 12.97
82 91 LECLER ANTOINE JEUH 10 00:24:55 04:38 12.96
83 416 BELCHE JÉRÉMY SEH 48 00:24:59 04:38 12.93
84 497 LEQUEUX SIMON SEH 49 00:25:01 04:39 12.91
85 2103 LAVAL FRÉDÉRIC V1H 12 00:25:05 04:40 12.88
86 570 VAN DER OUDERAA NICOLAS SEH 50 00:25:05 04:40 12.88
87 2018 DELMEE EVE JEUF 2 00:25:05 04:40 12.88
88 2104 LAVAL SALINAS ANDREA JEUF 3 00:25:06 04:40 12.87
89 2016 DELAFONTAINE LIAM JEUH 11 00:25:08 04:40 12.85
90 368 GIUNTA FRANK SEH 51 00:25:09 04:40 12.84
91 2049 STEIOFF STÉPHANE SEH 52 00:25:15 04:41 12.79
92 2051 THIRY ELIAN JEUH 12 00:25:25 04:43 12.71
93 55 HESSE SACHA JEUH 13 00:25:25 04:43 12.71
94 156 PRESER FRÉDÉRIC V2H 9 00:25:28 04:44 12.68
95 361 RENARD JEAN PHILIPPE V2H 10 00:25:30 04:44 12.67
96 36 FRANÇOIS MARILYN V1F 2 00:25:32 04:45 12.65
97 2042 PONSARD CRISTELLE V1F 3 00:25:37 04:46 12.61
98 320 COPPIN CLEMENT SEH 53 00:25:54 04:49 12.47
99 194 MARQUIS THOMAS JEUH 14 00:25:55 04:49 12.46
100 581 TINANT CHLOÉ SEF 3 00:25:59 04:50 12.43
101 108 DOYEN BENJAMIN SEH 54 00:26:00 04:50 12.42
102 44 DIEZ JULES JEUH 15 00:26:11 04:52 12.34
103 465 GAUSSIN RÉMI SEH 55 00:26:12 04:52 12.33
104 551 BIGONVILLE THIERRY V3H 3 00:26:15 04:53 12.30
105 379 LOUPPE ARNAUD SEH 56 00:26:16 04:53 12.30
106 332 ADAM EVAN JEUH 16 00:26:19 04:53 12.27
107 160 LACOURT VINCENT JEUH 17 00:26:25 04:54 12.23
108 166 GUILLAUME MATHIEU SEH 57 00:26:27 04:55 12.21
109 45 DREZEN LOUIS JEUH 18 00:26:28 04:55 12.20
110 2050 THIRY DANY V2H 11 00:26:30 04:55 12.19
111 525 THERER ELOISE SEF 4 00:26:32 04:56 12.17
112 191 MARÉCHAL LOUIS JEUH 19 00:26:34 04:56 12.16
113 2054 TRAN XUAN-MAI V1F 4 00:26:35 04:56 12.15
114 180 BERGUET JULIE SEF 5 00:26:46 04:58 12.07
115 481 BALZA DOMINIQUE V3H 4 00:26:48 04:59 12.05
116 147 RANSON PAULINE SEF 6 00:26:50 04:59 12.04
117 459 LAMORT EMY JEUF 4 00:26:51 04:59 12.03
118 185 OGER MICHEL V2H 12 00:26:54 05:00 12.01
119 101 WIDART JEAN V3H 5 00:26:55 05:00 12.00
120 409 TOUILLAUX DOMINIQUE V2H 13 00:26:57 05:00 11.98
121 117 BIGONVILLE GERALDINE SEF 7 00:26:58 05:01 11.98
122 382 COPPIN NICOLAS SEH 58 00:26:59 05:01 11.97
123 431 LESCRENIER LIONEL SEH 59 00:27:00 05:01 11.96
124 85 ALBERT VINCENT SEH 60 00:27:05 05:02 11.93
125 2001 ADNET FREDERIC V2H 14 00:27:08 05:02 11.90
126 119 ROTA SYLVAIN V1H 13 00:27:10 05:03 11.89
127 580 FRANÇOIS LOUISE JEUF 5 00:27:14 05:04 11.86
128 154 RAMSPACHER AURELIEN JEUH 20 00:27:15 05:04 11.85
129 584 FALZONE CLAUDIA V1F 5 00:27:18 05:04 11.83
130 316 TOULEMONDE EMELINE JEUF 6 00:27:22 05:05 11.80
131 2011 DASNOY FREDDY V3H 6 00:27:28 05:06 11.76
132 141 DOBBELAERE ROMAN SEH 61 00:27:30 05:07 11.75
133 2112 GARDEY NATHALIE V2F 1 00:27:31 05:07 11.74
134 132 PIERRARD MATHIEU SEH 62 00:27:36 05:08 11.70
135 2009 BORBOUSE RÉMY SEH 63 00:27:44 05:09 11.65
136 8 RAULET LAURIANNE SEF 8 00:27:50 05:10 11.60
137 354 DETROZ CLARISSE SEF 9 00:27:55 05:11 11.57
138 583 MOREAU GUILLAUME SEH 64 00:28:09 05:14 11.47
139 197 HENRY EDWIN SEH 65 00:28:10 05:14 11.47
140 186 CORMAN THIERRY V1H 14 00:28:11 05:14 11.46
141 593 LATRAN QUINTIA V1F 6 00:28:15 05:15 11.43
142 70 JACOB JEAN-JULIEN SEH 66 00:28:26 05:17 11.36
143 477 LIÉGEOIS THIBAULT JEUH 21 00:28:27 05:17 11.35
144 25 LEMAIRE GUY V3H 7 00:28:28 05:17 11.35
145 304 HAUMONT ADRIEN SEH 67 00:28:33 05:18 11.31
146 526 WILKOWSKI LAURA SEF 10 00:28:39 05:19 11.27
147 192 MARÉCHAL CAROLINE V1F 7 00:28:42 05:20 11.25
148 209 VALET PAUL V2H 15 00:28:47 05:21 11.22
149 193 MARQUIS LUDIVINE JEUF 7 00:28:49 05:21 11.21
150 2055 VAN GOIDSENHOVEN CAITLIN JEUF 8 00:28:50 05:21 11.20
151 2045 ROMAN CHRISTABEL V2F 2 00:28:52 05:22 11.19
152 15 PIERSON PATRICK V1H 15 00:28:58 05:23 11.15
153 162 SINOT TIFFANY SEF 11 00:29:08 05:25 11.09
154 585 DAUTUN LOU-ANNE JEUF 9 00:29:13 05:26 11.06
155 204 BRIEL VILLETTE JEUF 10 00:29:17 05:26 11.03
156 205 DENIS JUSTIN JEUH 22 00:29:17 05:26 11.03
157 178 178 N.N. XXX   00:29:22 05:27 11.00
158 200 BONNEVIE DOMINIQUE V2H 16 00:29:26 05:28 10.97
159 392 FAYON MÉLISSA SEF 12 00:29:31 05:29 10.94
160 151 RENAULD GÉRALDINE V1F 8 00:29:32 05:29 10.94
161 9 VALLET ANAIS SEF 13 00:29:35 05:30 10.92
162 528 GAUJARD MICHAEL SEH 68 00:29:36 05:30 10.91
163 188 MULLENDERS MELANIE SEF 14 00:29:36 05:30 10.91
164 2012 DASNOY PRISCILLIA SEF 15 00:29:38 05:30 10.90
165 174 PAUCET JACKY SEH 69 00:29:40 05:31 10.89
166 549 HALLET NADINE V2F 3 00:29:43 05:31 10.87
167 203 SCHOCKMEL AUDREY SEF 16 00:29:44 05:31 10.86
168 60 GOUJARD MATTHIEU JEUH 23 00:29:52 05:33 10.81
169 134 GOUJARD STEPHANE V1H 16 00:29:53 05:33 10.81
170 517 DE BRESSING ALIZÉE SEF 17 00:30:00 05:34 10.77
171 177 STOZ SOPHIE SEF 18 00:30:05 05:35 10.74
172 169 PETRISOT APOLLINE JEUF 11 00:30:06 05:35 10.73
173 2002 ADNET RAPHAEL JEUH 24 00:30:10 05:36 10.71
174 92 LUGEN NOËLLA V3F 1 00:30:10 05:36 10.71
175 131 NICOLAS SANDRA V1F 9 00:30:11 05:36 10.70
176 98 DUBOIS THIERRY SEH 70 00:30:13 05:37 10.69
177 2037 LIBOIS RAPHAËL V2H 17 00:30:14 05:37 10.68
178 102 DEVILLET SERGE V3H 8 00:30:15 05:37 10.68
179 79 CLAUDY FLORENT SEH 71 00:30:20 05:38 10.65
180 172 PAQUAY BENEDICRE V2F 4 00:30:24 05:39 10.62
181 2041 PAQUOT SANDRINE V1F 10 00:30:24 05:39 10.62
182 96 BOULANGER ANNE V1F 11 00:30:26 05:39 10.61
183 69 BOEUR MÉLANIE SEF 19 00:30:30 05:40 10.59
184 398 VALET MARINE SEF 20 00:30:30 05:40 10.59
185 513 PIREAUX KAMIE SEF 21 00:30:32 05:40 10.58
186 2023 GASPARD LAURENCE V1F 12 00:30:35 05:41 10.56
187 2025 GILLOT LAURA SEF 22 00:30:35 05:41 10.56
188 2020 DUBOIS FLORETTE SEF 23 00:30:37 05:41 10.55
189 198 CONTOR VICTOIRE SEF 24 00:30:40 05:42 10.53
190 199 CONTOR PATRICK V2H 18 00:30:41 05:42 10.53
191 534 CORNET SOPHIE V2F 5 00:30:44 05:43 10.51
192 498 GUILLAUME LUCAS SEH 72 00:30:45 05:43 10.50
193 14 PENNING JESSICA V1F 13 00:30:50 05:44 10.48
194 468 LEBLICQ TEO JEUH 25 00:31:01 05:46 10.41
195 175 MAGNAT AUDREY SEF 25 00:31:01 05:46 10.41
196 334 MARGAUX SOBLET SEF 26 00:31:04 05:46 10.40
197 480 THIRY ROMANE JEUF 12 00:31:16 05:48 10.33
198 2010 BOUCHARD CAROLINE V2F 6 00:31:16 05:48 10.33
199 158 BOCK ISELINE SEF 27 00:31:17 05:49 10.32
200 21 B2S SACHA JEUH 26 00:31:20 05:49 10.31
201 591 PIERRET FRANCOIS SEH 73 00:31:21 05:49 10.30
202 338 NOEL FRANCK V2H 19 00:31:25 05:50 10.28
203 171 NOEL GERALD V1H 17 00:31:28 05:51 10.26
204 350 ROLET JACQUES V3H 9 00:31:32 05:51 10.24
205 411 DEFOIN FLORIE SEF 28 00:31:35 05:52 10.23
206 2004 AUTHELET MARIE SEF 29 00:31:50 05:55 10.15
207 2056 WILLEMET CHLOE SEF 30 00:31:56 05:56 10.11
208 32 BARTHAUX NORAH JEUF 13 00:31:58 05:56 10.10
209 2028 HABAY CAROLINE SEF 31 00:32:03 05:57 10.08
210 155 MARÉCHAL GRÉGORY V1H 18 00:32:07 05:58 10.06
211 99 TOUILLAUX SASHA JEUF 14 00:32:12 05:59 10.03
212 46 CORNET SIMON SEH 74 00:32:14 05:59 10.02
213 49 MAYOT STEPHANIE V1F 14 00:32:14 05:59 10.02
214 71 MALET MARC SEH 75 00:32:17 06:00 10.01
215 37 FRECON MARTINE V2F 7 00:32:22 06:01 9.98
216 72 ARNOULD AURELIE V1F 15 00:32:22 06:01 9.98
217 11 PONCIN FLORIAN SEH 76 00:32:24 06:01 9.97
218 414 DEBATY ALAIN V3H 10 00:32:26 06:01 9.96
219 507 LOUIS GAELLE SEF 32 00:32:26 06:01 9.96
220 149 PIERSON ELINE JEUF 15 00:32:33 06:03 9.92
221 176 LOUIS LIONEL SEH 77 00:32:33 06:03 9.92
222 2053 THOLL MAÏTHÉ V1F 16 00:32:35 06:03 9.91
223 187 BRICHAUX JESSICA SEF 33 00:32:36 06:03 9.91
224 558 B2S FELIX JEUH 27 00:32:38 06:04 9.90
225 2021 FINEUSE EMILE V3H 11 00:32:42 06:04 9.88
226 537 GILLET GEOFFREY V1H 19 00:32:46 06:05 9.86
227 111 THONON LAURENCE V2F 8 00:32:46 06:05 9.86
228 2014 DAUBY MATTY SEF 34 00:32:47 06:05 9.85
229 184 VAN OOSTVELDT ROMAIN SEH 78 00:32:58 06:07 9.80
230 105 GRANDHENRY CHRISTELLE V2F 9 00:32:59 06:08 9.79
231 210 BODEUX CLARA JEUF 16 00:33:00 06:08 9.79
232 195 VINCK FLEUR V1F 17 00:33:00 06:08 9.79
233 1 LATTEUR BÉNÉDICTE V2F 10 00:33:04 06:09 9.77
234 61 DELSAUT ANGÉLIQUE SEF 35 00:33:06 06:09 9.76
235 64 B2S THÉO JEUH 28 00:33:07 06:09 9.75
236 353 LAHIER CLAUDINE V3F 2 00:33:09 06:09 9.74
237 2005 BAAR PIERRE V3H 12 00:33:14 06:10 9.72
238 2048 SALINAS FLOR V1F 18 00:33:25 06:12 9.67
239 419 LOUPPE PHILIPPE V3H 13 00:33:34 06:14 9.62
240 445 MAYOT CLARA JEUF 17 00:33:59 06:19 9.50
241 107 CHARNEUX YSALINE JEUF 18 00:34:14 06:22 9.44
242 51 MOREAU MARIE V1F 19 00:34:14 06:22 9.44
243 2013 DASNOY VANESSA SEF 36 00:34:16 06:22 9.43
244 397 BROLET VÉRONIQUE V1F 20 00:34:26 06:24 9.38
245 590 DEVIGNE GREGORION V1H 20 00:34:28 06:24 9.37
246 2111 FRANTZEN AURELIE SEF 37 00:34:34 06:25 9.34
247 420 LEYDER CLOTILDE SEF 38 00:34:40 06:26 9.32
248 438 LEYDER STÉPHANIE SEF 39 00:34:47 06:28 9.29
249 2040 MCGIRR CATHERINE V2F 11 00:34:50 06:28 9.27
250 2030 HOURAND SEVERINE V1F 21 00:34:50 06:28 9.27
251 529 LOBET SANDRA V3F 3 00:34:50 06:28 9.27
252 543 MASSON MARIE SEF 40 00:34:51 06:28 9.27
253 2022 GARDIEN MARTINE V2F 12 00:35:04 06:31 9.21
254 405 STASSER FLORENCE SEF 41 00:35:10 06:32 9.18
255 2036 LIBOIS FABIENNE V1F 22 00:35:16 06:33 9.16
256 2039 MARQUIS STÉPHANIE SEF 42 00:35:18 06:33 9.15
257 116 JACQUES SABINE V2F 13 00:35:19 06:34 9.15
258 208 MARTIN MICHAEL V1H 21 00:35:23 06:34 9.13
259 207 CORNET YVELINE V1F 23 00:35:23 06:34 9.13
260 544 SIMON ANNE V1F 24 00:35:25 06:35 9.12
261 447 NEMRY LISA SEF 43 00:35:38 06:37 9.06
262 595 LEBEAU EMILIE SEF 44 00:35:45 06:38 9.03
263 573 REMACLE STEPHANIE V1F 25 00:35:45 06:38 9.03
264 73 RAMSPACHER MELANIE V1F 26 00:35:55 06:40 8.99
265 312 HUBERT VIOLETTE SEF 45 00:36:12 06:43 8.92
266 165 LACOUQUE LAURE V1F 27 00:36:32 06:47 8.84
267 2046 ROTH AURELIE SEF 46 00:36:33 06:47 8.84
268 173 LEQUEUX ELOISE SEF 47 00:36:33 06:47 8.84
269 2007 BODART MARIE-HÉLÈNE V3F 4 00:36:46 06:50 8.78
270 164 CASTIAUX AMANDA V1F 28 00:37:03 06:53 8.72
271 449 COLLARD VINCIANE V2F 14 00:37:19 06:56 8.66
272 74 DOURTE LESLY SEF 48 00:37:20 06:56 8.65
273 80 FRAZELLE SEVERINE V1F 29 00:37:35 06:59 8.59
274 153 GAUL WIVINE V1F 30 00:37:52 07:02 8.53
275 587 SEYLLE ANNE V1F 31 00:38:10 07:05 8.46
276 485 LOUIS SABRINA SEF 49 00:38:10 07:05 8.46
277 170 HENRICY DEBORAH SEF 50 00:38:14 07:06 8.45
278 326 FELTUS CARMEN V2F 15 00:38:24 07:08 8.41
279 575 LEBLICQ CAMILLE SEF 51 00:38:39 07:11 8.36
280 2101 DE DECKER ARLETTE V3F 5 00:38:54 07:14 8.30
281 384 ANDOUCHE PAMÉLA V1F 32 00:39:06 07:16 8.26
282 189 PETIT JULIE SEF 52 00:39:06 07:16 8.26
283 375 OCTAVE LAURENCE V1F 33 00:39:08 07:16 8.25
284 122 PARISSE FRANÇOIS V1H 22 00:39:28 07:20 8.18
285 359 JOHAN LAETITIA V1F 34 00:39:34 07:21 8.16
286 470 QUOIRIN MANON SEF 53 00:39:47 07:23 8.12
287 491 DORT MARIE V3F 6 00:39:49 07:24 8.11
288 181 BOURCE VANINA SEF 54 00:40:52 07:35 7.90
289 542 VANHOEGAERDEN JEANNE SEF 55 00:41:01 07:37 7.87
290 510 RAMSPACHER MARIE-ANNE V3F 7 00:41:12 07:39 7.84
291 569 B2S ARTHUR JEUH 29 00:41:13 07:39 7.84
292 52 GILLET ANAELLE JEUF 19 00:41:38 07:44 7.76
293 206 MUGABO INEMA JEUF 20 00:41:39 07:44 7.75
294 500 DAUTUN NATASHA SEF 56 00:43:24 08:04 7.44
295 57 PIRSON AMANDINE SEF 57 00:43:24 08:04 7.44
296 383 FINET ADAN JEUH 30 00:45:55 08:32 7.03
297 168 MARTENS ANDREAS V3H 14 00:47:00 08:44 6.87